Regional Weather Roundup
Issued by NWS

Home | Current Version | Previous Version | Graphics & Text | Print | Product List | Glossary On
Versions: 1 2 3 4 5 6 7 8 9 10 11 12 13 14 15 16 17 18 19 20 21 22 23 24 25 26 27 28 29 30 31 32 33 34 35 36 37 38 39 40 41 42 43 44 45 46 47 48 49 50
000
ASUS45 KBOU 301507
RWRCO

WEATHER ROUNDUP FOR COLORADO
NATIONAL WEATHER SERVICE DENVER/BOULDER CO
900 AM MDT SUN AUG 30 2015

NOTE: "FAIR" INDICATES FEW OR NO CLOUDS BELOW 12000 FEET WITH NO
SIGNIFICANT WEATHER AND/OR OBSTRUCTIONS TO VISIBILITY.

COZ001>005-013-030-031-301600-
...NORTHWEST COLORADO...

CITY           SKY/WX    TMP DP  RH WIND       PRES   REMARKS
CRAIG          MOSUNNY   60  45  57 W5        30.20F
HAYDEN         NOT AVBL
MEEKER         MOSUNNY   61  41  47 CALM      30.22F
MOUNT WERNER   NOT AVBL
STEAMBOAT SPGS SUNNY     56  42  58 CALM      30.26S
WALDEN         MOSUNNY   54  37  54 SE5       30.34F
$$

COZ006>008-011-301600-
...WEST CENTRAL VALLEYS...

CITY           SKY/WX    TMP DP  RH WIND       PRES   REMARKS
GRAND JUNCTION SUNNY     70  42  36 SE13      30.12S
MONTROSE       MOSUNNY   73  43  33 E3        30.22S
EAGLE          MOSUNNY   54  39  58 CALM      30.33S
RIFLE          SUNNY     63  45  51 CALM      30.20S
DELTA          SUNNY     70  44  38 E6        30.19S
NUCLA          SUNNY     70  39  32 S7        30.28R
$$

COZ017>023-064>068-301600-
...SOUTHWEST COLORADO...

CITY           SKY/WX    TMP DP  RH WIND       PRES   REMARKS
DURANGO        MOSUNNY   66  44  45 CALM      30.32S
CORTEZ         MOSUNNY   69  49  48 CALM      30.24F
PAGOSA SPRINGS MOSUNNY   63  45  52 CALM      30.41S
TELLURIDE      SUNNY     61  42  49 CALM      30.48S
WOLF CREEK PAS SUNNY     48  39  71 SW9       30.71R
$$

COZ009-010-012-014-032>034-037-058>063-301600-
...CENTRAL COLORADO...

CITY           SKY/WX    TMP DP  RH WIND       PRES   REMARKS
ASPEN          MOSUNNY   62  40  44 CALM      30.35S
BUENA VISTA    SUNNY     59  40  49 CALM      30.40S
COPPER MTN     SUNNY     59  30  33 SW10      30.67R
BERTHOUD PASS  FAIR      46  34  61 NW24G33   30.68F
COTTONWOOD PAS SUNNY     61  37  41 CALM      30.51S
GUNNISON       SUNNY     52  37  58 CALM      30.43F
KREMMLING      PTSUNNY   54  39  58 CALM      30.37S
LEADVILLE      SUNNY     54  36  50 CALM      30.51S
MONARCH PASS   SUNNY     50  36  57 SW10      30.77S
SALIDA         SUNNY     63  42  45 NW8       30.44S
SUNLIGHT       SUNNY     55  39  54 CALM      30.58R
WILKERSON PASS SUNNY     52  34  50 W7        30.63R
$$

COZ069>075-301600-
...SAN LUIS VALLEY/SANGRE DE CRISTO MOUNTAINS...

CITY           SKY/WX    TMP DP  RH WIND       PRES   REMARKS
ALAMOSA        SUNNY     61  47  59 SW8       30.39S
LA VETA PASS   SUNNY     54  41  62 MISG      30.53R
SAGUACHE       NOT AVBL
$$

COZ035-036-038>040-301600-
...NORTHERN COLORADO FRONT RANGE...

CITY           SKY/WX    TMP DP  RH WIND       PRES   REMARKS
DENVER INTL AP PTSUNNY   75  43  31 SW5       30.12S
DMNS CITY PARK   N/A     74  45  34 S7G13     30.11F
AURORA         NOT AVBL
FRONT RANGE AP MOSUNNY   75  41  29 SW5       30.14S
ERIE MUNI ARPT SUNNY     72  44  36 E3        30.10S
BOULDER MUN AP SUNNY     72  41  33 CALM      30.10F
CENTENNIAL     PTSUNNY   76  43  30 SW15      30.16R
BROOMFIELD     MOSUNNY   72  46  40 CALM      30.14S
FORT COLLINS   SUNNY     70  46  43 CALM      30.10S
LONGMONT       SUNNY     73  50  45 CALM      30.11S
$$

COZ041-046-047-076>085-087-088-301600-
...PIKES PEAK/PALMER DIVIDE AND SOUTHERN FOOTHILLS...

CITY           SKY/WX    TMP DP  RH WIND       PRES   REMARKS
COLO. SPRINGS  PTSUNNY   72  45  37 CALM      30.21S
A. F. ACADEMY  SUNNY     74  42  31 N1        30.22S
ELLICOTT       SUNNY    N/A N/A N/A S5        30.19S
FALCON         PTSUNNY   77  40  26 MISG      30.26S
FORT CARSON    SUNNY     68  47  48 N1        30.18S
LIMON          SUNNY     65  48  54 S6        30.16F
MONUMENT HILL  SUNNY     77  36  22 W9        30.26S
TRINIDAD       SUNNY     74  48  39 SW6       30.20S
$$

COZ042>045-048>051-090-091-301600-
...NORTHEAST COLORADO...

CITY           SKY/WX    TMP DP  RH WIND       PRES   REMARKS
GREELEY ARPT   MOSUNNY   64  46  52 SW5       30.09S
AKRON          SUNNY     77  48  35 SW15      30.08R
BURLINGTON     SUNNY     74  53  48 S16       30.11S
WRAY           SUNNY     79  45  30 S15G22    30.05S
STERLING       SUNNY     72  50  46 S10       30.03S
HOLYOKE        SUNNY     77  50  38 S13       30.04S
FORT MORGAN    SUNNY     70  46  41 SW9       30.07S
$$

COZ086-089-092>099-301600-
...SOUTHEAST COLORADO...

CITY           SKY/WX    TMP DP  RH WIND       PRES   REMARKS
PUEBLO         SUNNY     70  45  40 CALM      30.12F
LA JUNTA       SUNNY     75  50  41 W6        30.10S
LAMAR          NOT AVBL
SPRINGFIELD    NOT AVBL
$$



USA.gov is the U.S. government's official web portal to all federal, state and local government web resources and services.